C6036 KPIE-

Flight info

Callsign C6036
Flight time N/A
Altitude VFR
Route VFR OPR
Aircraft H60/M-DOV/C

Departure

Time 2026-04-26 21:03
Airport St. Petersburg Clearwater International Airport (KPIE)

Arrival

Time N/A
Airport -
Time Latitude Longitude Altitude Speed Heading
2026-04-26 20:53 27.91306 -82.69478 20 ft 0 kts 131°
2026-04-26 20:57 27.91305 -82.69478 20 ft 0 kts 131°
2026-04-26 20:57 27.91292 -82.69460 21 ft 6 kts 129°
2026-04-26 20:57 27.91269 -82.69417 20 ft 5 kts 126°
2026-04-26 20:58 27.91249 -82.69389 20 ft 4 kts 129°
2026-04-26 20:58 27.91235 -82.69370 20 ft 3 kts 130°
2026-04-26 20:58 27.91219 -82.69350 20 ft 4 kts 133°
2026-04-26 20:58 27.91213 -82.69342 20 ft 0 kts 132°
2026-04-26 20:59 27.91207 -82.69335 20 ft 2 kts 133°
2026-04-26 20:59 27.91203 -82.69330 23 ft 1 kts 128°
2026-04-26 20:59 27.91197 -82.69323 21 ft 0 kts 134°
2026-04-26 21:00 27.91195 -82.69320 23 ft 2 kts 138°
2026-04-26 21:00 27.91154 -82.69266 56 ft 18 kts 132°
2026-04-26 21:00 27.91108 -82.69025 133 ft 56 kts 84°
2026-04-26 21:00 27.91273 -82.68390 356 ft 112 kts 71°
2026-04-26 21:01 27.91508 -82.67404 351 ft 142 kts 71°
2026-04-26 21:01 27.91786 -82.66252 289 ft 151 kts 69°
2026-04-26 21:01 27.92087 -82.65115 486 ft 160 kts 70°
2026-04-26 21:01 27.92312 -82.63877 309 ft 150 kts 76°
2026-04-26 21:02 27.92498 -82.62706 106 ft 152 kts 76°
2026-04-26 21:02 27.92711 -82.61522 321 ft 160 kts 76°
2026-04-26 21:02 27.92912 -82.60315 484 ft 154 kts 76°
2026-04-26 21:02 27.93112 -82.59110 538 ft 146 kts 90°
2026-04-26 21:03 27.92836 -82.58130 668 ft 126 kts 139°
2026-04-26 21:03 27.92056 -82.57912 663 ft 123 kts 188°
2026-04-26 21:03 27.91082 -82.57939 471 ft 151 kts 188°
2026-04-26 21:03 27.90073 -82.57922 463 ft 151 kts 187°
2026-04-26 21:04 27.89008 -82.57978 467 ft 152 kts 189°
2026-04-26 21:04 27.87986 -82.57973 418 ft 152 kts 186°
2026-04-26 21:04 27.86837 -82.57906 418 ft 177 kts 177°
2026-04-26 21:04 27.85648 -82.57359 446 ft 193 kts 152°
2026-04-26 21:05 27.84613 -82.56375 449 ft 197 kts 136°
2026-04-26 21:05 27.83841 -82.55087 462 ft 192 kts 122°
2026-04-26 21:05 27.83334 -82.53885 477 ft 153 kts 111°
2026-04-26 21:05 27.83172 -82.52797 492 ft 134 kts 89°
2026-04-26 21:06 27.83177 -82.51615 464 ft 164 kts 86°
2026-04-26 21:06 27.83214 -82.50359 471 ft 156 kts 86°
2026-04-26 21:06 27.83234 -82.49190 493 ft 142 kts 90°
2026-04-26 21:06 27.83262 -82.48074 507 ft 144 kts 90°
2026-04-26 21:07 27.83254 -82.46983 575 ft 136 kts 90°
2026-04-26 21:07 27.83230 -82.45899 581 ft 135 kts 90°
2026-04-26 21:07 27.83238 -82.44789 578 ft 142 kts 90°
2026-04-26 21:07 27.83250 -82.43686 576 ft 133 kts 90°
2026-04-26 21:08 27.83233 -82.42624 567 ft 133 kts 90°
2026-04-26 21:08 27.83249 -82.41562 568 ft 130 kts 90°
2026-04-26 21:08 27.83252 -82.40530 567 ft 132 kts 89°
2026-04-26 21:08 27.83249 -82.39450 566 ft 134 kts 89°
2026-04-26 21:09 27.83294 -82.38440 571 ft 130 kts 89°
2026-04-26 21:09 27.83339 -82.37443 564 ft 131 kts 89°
2026-04-26 21:09 27.83402 -82.36366 577 ft 142 kts 89°
2026-04-26 21:09 27.83475 -82.35299 567 ft 133 kts 89°
2026-04-26 21:10 27.83547 -82.34242 494 ft 138 kts 89°
2026-04-26 21:10 27.83616 -82.33179 490 ft 139 kts 89°
2026-04-26 21:10 27.83675 -82.32115 498 ft 133 kts 89°
2026-04-26 21:10 27.83729 -82.31041 497 ft 148 kts 90°
2026-04-26 21:11 27.83775 -82.29951 501 ft 136 kts 90°
2026-04-26 21:11 27.83781 -82.28830 501 ft 143 kts 91°
2026-04-26 21:11 27.83788 -82.27744 508 ft 132 kts 92°
2026-04-26 21:11 27.83809 -82.26683 502 ft 131 kts 92°
2026-04-26 21:12 27.83807 -82.25581 504 ft 136 kts 92°
2026-04-26 21:12 27.83852 -82.24482 494 ft 136 kts 83°
2026-04-26 21:12 27.84050 -82.23845 491 ft 124 kts 63°
2026-04-26 21:12 27.84575 -82.23148 503 ft 110 kts 37°
2026-04-26 21:13 27.85231 -82.22742 492 ft 118 kts 21°
2026-04-26 21:13 27.86034 -82.22294 490 ft 126 kts 19°
2026-04-26 21:13 27.86773 -82.21846 499 ft 105 kts 21°
2026-04-26 21:13 27.87332 -82.21509 510 ft 79 kts 19°
2026-04-26 21:14 27.87797 -82.21267 398 ft 68 kts 15°
2026-04-26 21:14 27.88231 -82.21095 456 ft 68 kts 11°
2026-04-26 21:14 27.88715 -82.21006 582 ft 73 kts
2026-04-26 21:14 27.89226 -82.20899 554 ft 77 kts
2026-04-26 21:15 27.89754 -82.20768 521 ft 79 kts
2026-04-26 21:15 27.90294 -82.20622 536 ft 81 kts 12°
2026-04-26 21:15 27.90843 -82.20495 448 ft 79 kts
2026-04-26 21:15 27.91353 -82.20407 553 ft 73 kts
2026-04-26 21:16 27.91907 -82.20366 536 ft 86 kts
2026-04-26 21:16 27.92508 -82.20253 515 ft 85 kts
2026-04-26 21:16 27.93044 -82.20130 521 ft 74 kts
2026-04-26 21:16 27.93556 -82.20034 504 ft 76 kts
2026-04-26 21:17 27.94066 -82.19933 583 ft 75 kts
2026-04-26 21:17 27.94580 -82.19817 475 ft 79 kts 17°
2026-04-26 21:17 27.95174 -82.19638 506 ft 100 kts
2026-04-26 21:17 27.95908 -82.19363 426 ft 119 kts 13°
2026-04-26 21:18 27.96725 -82.19017 459 ft 133 kts 17°
2026-04-26 21:18 27.97580 -82.18686 522 ft 126 kts 14°
2026-04-26 21:18 27.98365 -82.18368 505 ft 128 kts 17°
2026-04-26 21:18 27.99237 -82.18082 496 ft 122 kts 10°
2026-04-26 21:19 28.00091 -82.17755 497 ft 137 kts 10°
2026-04-26 21:19 28.00941 -82.17483 498 ft 126 kts 10°
2026-04-26 21:19 28.01850 -82.17031 487 ft 148 kts 24°
2026-04-26 21:19 28.02625 -82.16467 508 ft 123 kts 36°
2026-04-26 21:20 28.03370 -82.15774 486 ft 139 kts 36°
2026-04-26 21:20 28.04080 -82.15117 496 ft 132 kts 36°
2026-04-26 21:20 28.04760 -82.14484 506 ft 132 kts 36°
2026-04-26 21:20 28.05435 -82.13789 499 ft 119 kts 44°
2026-04-26 21:21 28.06041 -82.13019 497 ft 136 kts 44°
2026-04-26 21:21 28.06649 -82.12281 503 ft 130 kts 44°
2026-04-26 21:21 28.07256 -82.11500 494 ft 136 kts 44°
2026-04-26 21:21 28.07894 -82.10752 499 ft 129 kts 44°
2026-04-26 21:22 28.08501 -82.09975 506 ft 136 kts 44°
2026-04-26 21:22 28.09130 -82.09220 499 ft 129 kts 44°
2026-04-26 21:22 28.09701 -82.08473 496 ft 135 kts 44°
2026-04-26 21:23 28.10950 -82.06877 496 ft 142 kts 44°
2026-04-26 21:23 28.11577 -82.06068 502 ft 132 kts 44°
2026-04-26 21:23 28.12171 -82.05251 492 ft 143 kts 44°
2026-04-26 21:23 28.12784 -82.04431 514 ft 135 kts 44°
2026-04-26 21:24 28.13406 -82.03644 508 ft 136 kts 41°
2026-04-26 21:24 28.14013 -82.02850 503 ft 130 kts 41°
2026-04-26 21:24 28.14642 -82.02116 511 ft 128 kts 41°
2026-04-26 21:24 28.15301 -82.01400 511 ft 140 kts 36°
2026-04-26 21:25 28.16016 -82.00706 502 ft 130 kts 35°
2026-04-26 21:25 28.16715 -82.00020 514 ft 131 kts 35°
2026-04-26 21:25 28.17436 -81.99301 516 ft 130 kts 35°
2026-04-26 21:25 28.18120 -81.98631 513 ft 137 kts 36°
2026-04-26 21:26 28.18842 -81.97912 516 ft 133 kts 36°
2026-04-26 21:26 28.19536 -81.97258 531 ft 138 kts 36°
2026-04-26 21:26 28.20257 -81.96608 938 ft 133 kts 35°
2026-04-26 21:26 28.20957 -81.95965 922 ft 128 kts 35°
2026-04-26 21:27 28.21653 -81.95316 912 ft 129 kts 35°
2026-04-26 21:27 28.22387 -81.94663 908 ft 135 kts 35°
2026-04-26 21:27 28.23083 -81.94021 908 ft 130 kts 35°
2026-04-26 21:27 28.23782 -81.93366 908 ft 122 kts 48°
2026-04-26 21:28 28.24148 -81.92601 921 ft 103 kts 90°
2026-04-26 21:28 28.24041 -81.91852 910 ft 109 kts 121°
2026-04-26 21:28 28.23628 -81.90944 896 ft 145 kts 121°
2026-04-26 21:28 28.23177 -81.89971 899 ft 140 kts 121°
2026-04-26 21:29 28.22730 -81.89012 902 ft 135 kts 121°
2026-04-26 21:29 28.22287 -81.88065 906 ft 137 kts 121°
2026-04-26 21:29 28.21851 -81.87110 899 ft 134 kts 121°
2026-04-26 21:29 28.21432 -81.86171 904 ft 131 kts 121°
2026-04-26 21:30 28.21013 -81.85243 903 ft 133 kts 121°
2026-04-26 21:30 28.20574 -81.84305 901 ft 134 kts 121°
2026-04-26 21:30 28.20113 -81.83353 898 ft 142 kts 121°
2026-04-26 21:30 28.19647 -81.82374 900 ft 143 kts 121°
2026-04-26 21:31 28.19173 -81.81369 895 ft 148 kts 121°
2026-04-26 21:31 28.18701 -81.80351 889 ft 143 kts 121°
2026-04-26 21:31 28.18237 -81.79380 894 ft 141 kts 121°
2026-04-26 21:31 28.17772 -81.78407 895 ft 137 kts 121°
2026-04-26 21:32 28.17323 -81.77473 892 ft 141 kts 121°
2026-04-26 21:32 28.16860 -81.76508 887 ft 137 kts 121°
2026-04-26 21:32 28.16403 -81.75547 890 ft 136 kts 121°
2026-04-26 21:32 28.15745 -81.74784 880 ft 139 kts 156°
2026-04-26 21:33 28.14852 -81.74479 903 ft 132 kts 171°
2026-04-26 21:33 28.13990 -81.74219 894 ft 128 kts 171°
2026-04-26 21:33 28.13139 -81.73952 892 ft 129 kts 171°
2026-04-26 21:33 28.12289 -81.73748 951 ft 117 kts 178°
2026-04-26 21:34 28.11502 -81.73611 976 ft 111 kts 180°
2026-04-26 21:34 28.10762 -81.73507 1077 ft 109 kts 182°
2026-04-26 21:34 28.10004 -81.73408 1096 ft 106 kts 182°
2026-04-26 21:34 28.09293 -81.73358 1090 ft 110 kts 183°
2026-04-26 21:35 28.08557 -81.73296 1093 ft 110 kts 183°
2026-04-26 21:35 28.07827 -81.73214 1099 ft 105 kts 182°
2026-04-26 21:35 28.07085 -81.73125 1100 ft 106 kts 182°
2026-04-26 21:35 28.06335 -81.73022 1093 ft 109 kts 182°
2026-04-26 21:36 28.05584 -81.72916 1088 ft 109 kts 182°
2026-04-26 21:36 28.05098 -81.72841 1095 ft 109 kts 182°
2026-04-26 21:36 28.04099 -81.72640 1100 ft 99 kts 182°
2026-04-26 21:36 28.03475 -81.72616 1100 ft 92 kts 194°
2026-04-26 21:37 28.02740 -81.72678 1098 ft 104 kts 194°
2026-04-26 21:37 28.02040 -81.72710 1094 ft 101 kts 194°
2026-04-26 21:37 28.01338 -81.72774 1092 ft 101 kts 194°
2026-04-26 21:37 28.00616 -81.72829 1089 ft 104 kts 194°
2026-04-26 21:38 27.99915 -81.72873 1089 ft 103 kts 194°
2026-04-26 21:38 27.99204 -81.72901 1095 ft 103 kts 194°
2026-04-26 21:38 27.98474 -81.72932 1095 ft 104 kts 194°
2026-04-26 21:38 27.97759 -81.73028 1098 ft 106 kts 194°
2026-04-26 21:39 27.97016 -81.73097 1102 ft 107 kts 194°
2026-04-26 21:39 27.96271 -81.73133 1097 ft 102 kts 194°
2026-04-26 21:39 27.95622 -81.73195 1098 ft 86 kts 194°
2026-04-26 21:39 27.94929 -81.73287 1086 ft 105 kts 194°
2026-04-26 21:40 27.94184 -81.73350 1101 ft 107 kts 194°
2026-04-26 21:40 27.93453 -81.73426 1097 ft 98 kts 194°
2026-04-26 21:40 27.92847 -81.73583 1100 ft 85 kts 213°
2026-04-26 21:40 27.92219 -81.73864 1100 ft 97 kts 213°
2026-04-26 21:41 27.91510 -81.74271 1076 ft 130 kts 213°
2026-04-26 21:41 27.90676 -81.74744 1105 ft 125 kts 213°
2026-04-26 21:41 27.89965 -81.75141 1100 ft 104 kts 213°
2026-04-26 21:41 27.89325 -81.75459 1092 ft 100 kts 213°
2026-04-26 21:42 27.88679 -81.75772 1101 ft 100 kts 213°
2026-04-26 21:42 27.87982 -81.76170 1097 ft 110 kts 213°
2026-04-26 21:42 27.87353 -81.76495 1102 ft 90 kts 216°
2026-04-26 21:42 27.86803 -81.76935 1088 ft 111 kts 222°
2026-04-26 21:43 27.86227 -81.77390 1093 ft 92 kts 222°
2026-04-26 21:43 27.85655 -81.77788 1096 ft 98 kts 222°
2026-04-26 21:43 27.85093 -81.78247 1092 ft 103 kts 222°
2026-04-26 21:43 27.84529 -81.78717 1096 ft 102 kts 222°
2026-04-26 21:44 27.83981 -81.79175 1094 ft 98 kts 222°
2026-04-26 21:44 27.83422 -81.79639 1093 ft 97 kts 222°
2026-04-26 21:44 27.82849 -81.80109 1091 ft 101 kts 222°
2026-04-26 21:44 27.82286 -81.80535 1086 ft 103 kts 222°
2026-04-26 21:45 27.81691 -81.80946 1094 ft 101 kts 222°
2026-04-26 21:45 27.81120 -81.81355 1095 ft 91 kts 223°
2026-04-26 21:45 27.80763 -81.81839 1101 ft 74 kts 252°
2026-04-26 21:45 27.80655 -81.82469 1089 ft 99 kts 263°
2026-04-26 21:46 27.80542 -81.83205 1087 ft 98 kts 263°
2026-04-26 21:46 27.80433 -81.83929 1085 ft 88 kts 263°
2026-04-26 21:46 27.80321 -81.84569 1094 ft 82 kts 263°
2026-04-26 21:46 27.80195 -81.85234 1098 ft 84 kts 263°
2026-04-26 21:47 27.80075 -81.85922 1095 ft 93 kts 263°
2026-04-26 21:47 27.80020 -81.86691 1086 ft 102 kts 272°
2026-04-26 21:47 27.80042 -81.87419 1103 ft 88 kts 273°
2026-04-26 21:47 27.80046 -81.88128 1094 ft 87 kts 273°
2026-04-26 21:48 27.80081 -81.88782 1101 ft 77 kts 283°
2026-04-26 21:48 27.80329 -81.89275 1100 ft 73 kts 308°
2026-04-26 21:48 27.80735 -81.89817 1098 ft 92 kts 307°
2026-04-26 21:48 27.81142 -81.90369 1094 ft 92 kts 307°
2026-04-26 21:49 27.81551 -81.90912 1100 ft 87 kts 307°
2026-04-26 21:49 27.81958 -81.91442 1095 ft 91 kts 307°
2026-04-26 21:49 27.82370 -81.91985 1091 ft 91 kts 307°
2026-04-26 21:49 27.82780 -81.92518 1093 ft 90 kts 307°
2026-04-26 21:50 27.83189 -81.93049 1091 ft 91 kts 307°
2026-04-26 21:50 27.83460 -81.93415 1090 ft 89 kts 307°
2026-04-26 21:50 27.84009 -81.94153 1093 ft 88 kts 307°
2026-04-26 21:50 27.84413 -81.94699 1087 ft 94 kts 307°
2026-04-26 21:51 27.84824 -81.95259 1090 ft 92 kts 307°
2026-04-26 21:51 27.85238 -81.95785 1094 ft 92 kts 307°
2026-04-26 21:51 27.85670 -81.96306 1098 ft 89 kts 307°
2026-04-26 21:51 27.86110 -81.96832 1095 ft 93 kts 307°
2026-04-26 21:52 27.86544 -81.97358 1094 ft 94 kts 307°
2026-04-26 21:52 27.86971 -81.97905 1097 ft 92 kts 307°
2026-04-26 21:52 27.87379 -81.98456 1093 ft 93 kts 307°
2026-04-26 21:52 27.87783 -81.99022 1093 ft 92 kts 307°
2026-04-26 21:53 27.88188 -81.99570 1094 ft 92 kts 307°
2026-04-26 21:53 27.88599 -82.00122 1089 ft 93 kts 307°
2026-04-26 21:53 27.89015 -82.00675 1095 ft 91 kts 307°
2026-04-26 21:53 27.89424 -82.01202 1094 ft 90 kts 307°
2026-04-26 21:54 27.89992 -82.01613 1085 ft 108 kts 337°
2026-04-26 21:54 27.90782 -82.01594 1097 ft 112 kts 10°
2026-04-26 21:54 27.91493 -82.01397 1097 ft 106 kts
2026-04-26 21:54 27.92213 -82.01213 1086 ft 110 kts 359°
2026-04-26 21:55 27.92993 -82.01180 1091 ft 114 kts 354°
2026-04-26 21:55 27.93780 -82.01188 1099 ft 106 kts 354°
2026-04-26 21:55 27.94454 -82.01181 1104 ft 89 kts 354°
2026-04-26 21:55 27.95160 -82.01217 1020 ft 105 kts 352°
2026-04-26 21:56 27.95876 -82.01280 939 ft 99 kts 347°
2026-04-26 21:56 27.96499 -82.01387 826 ft 82 kts 348°
2026-04-26 21:56 27.97012 -82.01492 689 ft 72 kts 349°
2026-04-26 21:56 27.97457 -82.01566 589 ft 58 kts 351°
2026-04-26 21:57 27.97809 -82.01565 520 ft 43 kts 349°
2026-04-26 21:57 27.98085 -82.01599 370 ft 36 kts 354°
2026-04-26 21:57 27.98275 -82.01621 246 ft 16 kts 356°
2026-04-26 21:57 27.98344 -82.01616 167 ft 4 kts
2026-04-26 21:58 27.98355 -82.01615 144 ft 0 kts 11°
2026-04-26 22:00 27.98358 -82.01614 144 ft 2 kts
2026-04-26 22:00 27.98391 -82.01611 146 ft 7 kts
2026-04-26 22:00 27.98447 -82.01613 149 ft 10 kts 353°
2026-04-26 22:00 27.98521 -82.01618 150 ft 12 kts 360°
2026-04-26 22:01 27.98598 -82.01616 152 ft 12 kts 354°
2026-04-26 22:01 27.98653 -82.01623 157 ft 6 kts 325°
2026-04-26 22:01 27.98677 -82.01633 152 ft 2 kts 321°
2026-04-26 22:01 27.98682 -82.01634 146 ft 0 kts 320°
2026-04-26 22:21 27.98683 -82.01634 146 ft 0 kts 320°